GW6227 Weather Reports


time (UTC)temp
C
wind
direction
speed
KPH
gust
KPH
rain 1hr
cm
rain 24hr
cm
rain mn
cm
humidity
%
barometer
mb
20260506013953 31 45 8.0 11.3 0.00 0.00 0.00 68 1014.6
20260506013453 30 68 4.8 11.3 0.00 0.00 0.00 69 1014.2
20260506012953 31 68 4.8 6.4 0.00 0.00 0.00 68 1014.6
20260506012453 32 90 3.2 4.8 0.00 0.00 0.00 65 1014.6
20260506011953 31 68 12.9 16.1 0.00 0.00 0.00 65 1014.6
20260506011453 31 45 14.5 17.7 0.00 0.00 0.00 64 1014.6
20260506010953 31 68 8.0 11.3 0.00 0.00 0.00 65 1014.6
20260506010453 31 68 12.9 14.5 0.00 0.00 0.00 64 1014.9
20260506005955 31 68 9.7 14.5 0.00 0.00 0.00 63 1014.6
20260506005453 31 68 11.3 14.5 0.00 0.00 0.00 65 1014.6
20260506004954 31 68 6.4 8.0 0.00 0.00 0.00 66 1014.6
20260506004454 30 45 4.8 8.0 0.00 0.00 0.00 68 1014.6
20260506003953 31 45 8.0 9.7 0.00 0.00 0.00 68 1014.6
20260506003453 30 68 12.9 16.1 0.00 0.00 0.00 64 1014.6
20260506002954 30 23 9.7 11.3 0.00 0.00 0.00 69 1014.6
20260506002454 30 68 11.3 16.1 0.00 0.00 0.00 68 1014.6
20260506001953 30 68 9.7 11.3 0.00 0.00 0.00 68 1014.6
20260506001454 30 68 8.0 11.3 0.00 0.00 0.00 70 1014.6
20260506000953 31 68 3.2 4.8 0.00 0.00 0.00 71 1014.6
20260506000454 30 68 3.2 8.0 0.00 0.00 0.00 72 1014.2
20260505235953 30 90 11.3 16.1 0.00 0.00 0.00 71 1014.6
20260505235454 30 23 4.8 8.0 0.00 0.00 0.00 74 1014.6
20260505234954 30 113 11.3 16.1 0.00 0.00 0.00 72 1014.6
20260505234454 30 135 6.4 11.3 0.00 0.00 0.00 74 1014.2
20260505233953 30 90 8.0 12.9 0.00 0.00 0.00 74 1014.6
20260505233453 30 90 3.2 4.8 0.00 0.00 0.00 75 1014.2
20260505232953 30 23 14.5 22.5 0.00 0.00 0.00 74 1014.2
20260505232453 30 90 4.8 8.0 0.00 0.00 0.00 74 1014.2
20260505231953 30 113 3.2 4.8 0.00 0.00 0.00 74 1014.2
20260505231453 30 68 3.2 3.2 0.00 0.00 0.00 74 1014.2
20260505230953 30 90 4.8 6.4 0.00 0.00 0.00 74 1013.9
20260505230454 30 90 3.2 6.4 0.00 0.00 0.00 73 1013.9
20260505225954 29 45 4.8 6.4 0.00 0.00 0.00 74 1013.9
20260505225454 29 90 6.4 9.7 0.00 0.00 0.00 73 1014.2
20260505224953 28 68 4.8 4.8 0.00 0.00 0.00 75 1013.9
20260505224453 28 45 16.1 20.9 0.00 0.00 0.00 75 1013.9
20260505223953 28 68 6.4 8.0 0.00 0.00 0.00 77 1013.5
20260505223453 28 68 8.0 11.3 0.00 0.00 0.00 77 1013.5
20260505222953 28 45 9.7 11.3 0.00 0.00 0.00 78 1013.5
20260505222453 27 68 11.3 14.5 0.00 0.00 0.00 79 1013.5
20260505221953 27 90 4.8 8.0 0.00 0.00 0.00 80 1013.5
20260505221453 27 68 8.0 14.5 0.00 0.00 0.00 81 1013.5
20260505220954 27 68 8.0 9.7 0.00 0.00 0.00 81 1013.2
20260505220453 27 68 4.8 8.0 0.00 0.00 0.00 82 1013.5
20260505215954 26 90 6.4 8.0 0.00 0.00 0.00 83 1013.5
20260505215453 26 68 8.0 14.5 0.00 0.00 0.00 83 1013.5
20260505214953 26 68 3.2 4.8 0.00 0.00 0.00 85 1013.2
20260505214453 26 90 8.0 12.9 0.00 0.00 0.00 84 1013.5
20260505213953 26 90 8.0 11.3 0.00 0.00 0.00 85 1013.5
20260505213454 26 68 12.9 17.7 0.00 0.00 0.00 85 1013.5
20260505212954 26 68 8.0 8.0 0.00 0.00 0.00 85 1013.2
20260505212453 26 68 11.3 16.1 0.00 0.00 0.00 85 1013.2
20260505211954 26 68 9.7 11.3 0.00 0.00 0.00 86 1013.2
20260505211453 26 68 4.8 6.4 0.00 0.00 0.00 86 1013.5
20260505210953 26 68 9.7 12.9 0.00 0.00 0.00 86 1013.5
20260505210453 26 90 3.2 4.8 0.00 0.00 0.00 86 1013.2
20260505205954 26 45 4.8 4.8 0.00 0.00 0.00 85 1013.2
20260505205454 26 45 9.7 11.3 0.00 0.00 0.00 86 1013.2
20260505204953 26 68 4.8 8.0 0.00 0.00 0.00 86 1013.2
20260505204455 26 68 4.8 6.4 0.00 0.00 0.00 85 1013.2
20260505203954 26 45 3.2 4.8 0.00 0.00 0.00 85 1013.2
20260505203453 26 45 6.4 8.0 0.00 0.00 0.00 86 1012.9
20260505202954 26 68 4.8 8.0 0.00 0.00 0.00 86 1012.9
20260505202455 26 113 8.0 11.3 0.00 0.00 0.00 86 1012.9
20260505201954 26 90 4.8 6.4 0.00 0.00 0.00 86 1013.2
20260505201454 26 23 6.4 8.0 0.00 0.00 0.00 86 1012.9
20260505200954 26 90 11.3 12.9 0.00 0.00 0.00 86 1012.5
20260505200453 26 90 6.4 8.0 0.00 0.00 0.00 87 1012.9
20260505195954 26 90 4.8 6.4 0.00 0.00 0.00 86 1012.5
20260505195454 26 90 9.7 11.3 0.00 0.00 0.00 86 1012.5
20260505194953 26 90 11.3 14.5 0.00 0.00 0.00 85 1012.5
20260505194453 26 113 8.0 9.7 0.00 0.00 0.00 85 1012.5
20260505193953 26 45 6.4 8.0 0.00 0.00 0.00 85 1012.5
20260505193453 26 90 3.2 3.2 0.00 0.00 0.00 84 1012.5
20260505192954 26 113 6.4 9.7 0.00 0.00 0.00 84 1012.5
20260505192453 25 90 6.4 8.0 0.00 0.00 0.00 83 1012.2
20260505191953 26 68 4.8 6.4 0.00 0.00 0.00 82 1012.2
20260505191453 26 68 6.4 9.7 0.00 0.00 0.00 82 1012.5
20260505190953 26 68 4.8 8.0 0.00 0.00 0.00 83 1012.5
20260505190453 26 68 6.4 8.0 0.00 0.00 0.00 84 1012.2
20260505185957 26 90 9.7 12.9 0.00 0.00 0.00 84 1012.2
20260505185453 26 90 8.0 9.7 0.00 0.00 0.00 87 1012.2
20260505184953 26 90 6.4 11.3 0.00 0.00 0.00 87 1012.2
20260505184454 26 90 6.4 11.3 0.00 0.00 0.00 87 1012.5
20260505183954 26 90 8.0 11.3 0.00 0.00 0.00 87 1012.5
20260505183454 26 68 8.0 12.9 0.00 0.00 0.00 87 1012.2
20260505182953 26 90 4.8 8.0 0.00 0.00 0.00 88 1012.2
20260505182453 26 68 8.0 11.3 0.00 0.00 0.00 88 1012.2
20260505181954 26 68 8.0 11.3 0.00 0.00 0.00 88 1012.5
20260505181454 26 68 12.9 17.7 0.00 0.00 0.00 89 1012.5
20260505180954 26 90 4.8 8.0 0.00 0.00 0.00 88 1012.5
20260505180454 26 90 8.0 11.3 0.00 0.00 0.00 88 1012.9
20260505175954 26 90 8.0 11.3 0.00 0.00 0.00 88 1012.9
20260505175454 26 45 6.4 9.7 0.00 0.00 0.00 88 1012.9
20260505174954 26 68 11.3 14.5 0.00 0.00 0.00 88 1012.9
20260505174453 26 68 11.3 16.1 0.00 0.00 0.00 88 1012.9
20260505173954 26 68 9.7 14.5 0.00 0.00 0.00 88 1012.9
20260505173453 26 45 9.7 11.3 0.00 0.00 0.00 89 1012.9
20260505172954 26 90 8.0 9.7 0.00 0.00 0.00 88 1013.2
20260505172453 26 90 8.0 12.9 0.00 0.00 0.00 89 1012.9
20260505171954 26 68 8.0 11.3 0.00 0.00 0.00 88 1013.2
20260505171455 26 45 8.0 11.3 0.00 0.00 0.00 88 1013.2
20260505170953 26 23 11.3 11.3 0.00 0.00 0.00 88 1013.2
20260505170453 26 90 6.4 9.7 0.00 0.00 0.00 88 1013.5
20260505165953 26 90 9.7 12.9 0.00 0.00 0.00 88 1013.2
20260505165454 26 68 8.0 11.3 0.00 0.00 0.00 88 1013.2
20260505164953 26 90 9.7 11.3 0.00 0.00 0.00 88 1013.5
20260505164454 26 68 11.3 16.1 0.00 0.00 0.00 88 1013.5
20260505163954 26 68 11.3 14.5 0.00 0.00 0.00 88 1013.5
20260505163005 26 68 8.0 11.3 0.00 0.00 0.00 88 1013.5
20260505162453 26 68 9.7 11.3 0.00 0.00 0.00 88 1013.5
20260505161954 26 68 12.9 19.3 0.00 0.00 0.00 87 1013.5
20260505161453 26 45 8.0 9.7 0.00 0.00 0.00 87 1013.5
20260505160954 26 68 9.7 11.3 0.00 0.00 0.00 87 1013.5
20260505160454 26 90 9.7 12.9 0.00 0.00 0.00 87 1013.5
20260505152953 26 90 9.7 11.3 0.00 0.00 0.00 87 1013.9
20260505152453 26 68 12.9 16.1 0.00 0.00 0.00 87 1014.2
20260505151953 26 68 8.0 11.3 0.00 0.00 0.00 86 1013.9
20260505151453 26 90 6.4 8.0 0.00 0.00 0.00 86 1013.9
20260505150953 26 68 8.0 9.7 0.00 0.00 0.00 86 1014.2
20260505150453 27 45 9.7 11.3 0.00 0.00 0.00 85 1014.2
20260505140454 27 113 11.3 16.1 0.00 0.00 0.00 87 1014.2
20260505124954 27 68 9.7 9.7 0.00 0.00 0.00 86 1013.9
20260505124453 27 68 12.9 16.1 0.00 0.00 0.00 85 1013.5
20260505123953 27 45 9.7 12.9 0.00 0.00 0.00 86 1013.5
20260505123454 27 68 6.4 8.0 0.00 0.00 0.00 86 1013.5
20260505122953 27 45 11.3 12.9 0.00 0.00 0.00 86 1013.2
20260505122453 27 90 11.3 12.9 0.00 0.00 0.00 86 1013.2
20260505121953 27 0 12.9 16.1 0.00 0.00 0.00 86 1013.5
20260505121454 27 68 14.5 19.3 0.00 0.00 0.00 86 1013.2
20260505120954 27 113 12.9 19.3 0.00 0.00 0.00 85 1013.2
20260505120454 27 45 9.7 12.9 0.00 0.00 0.00 86 1013.2
20260505115953 27 45 14.5 20.9 0.00 0.00 0.00 86 1013.2
20260505115453 27 45 11.3 12.9 0.00 0.00 0.00 85 1013.2
20260505114954 27 68 14.5 19.3 0.00 0.00 0.00 85 1012.9
20260505114453 27 68 12.9 17.7 0.00 0.00 0.00 85 1012.9
20260505113954 27 68 11.3 14.5 0.00 0.00 0.00 85 1012.9
20260505113453 27 45 11.3 12.9 0.00 0.00 0.00 85 1012.9
20260505113000 27 45 11.3 14.5 0.00 0.00 0.00 85 1012.9
20260505112453 27 45 17.7 24.1 0.00 0.00 0.00 85 1012.9
20260505111953 27 68 17.7 22.5 0.00 0.00 0.00 85 1012.9
20260505111454 27 68 12.9 17.7 0.00 0.00 0.00 86 1012.9
20260505110953 27 90 11.3 16.1 0.00 0.00 0.00 85 1012.9
20260505110453 27 68 12.9 16.1 0.00 0.00 0.00 85 1012.9
20260505101954 27 23 12.9 16.1 0.00 0.00 0.00 86 1012.5
20260505101453 27 45 11.3 14.5 0.00 0.00 0.00 85 1012.5
20260505100953 27 23 8.0 11.3 0.00 0.00 0.00 85 1012.5
20260505100453 27 90 9.7 16.1 0.00 0.00 0.00 85 1012.2
20260505095953 27 68 12.9 16.1 0.00 0.00 0.00 84 1012.5
20260505095454 28 90 16.1 22.5 0.00 0.00 0.00 82 1012.2
20260505094953 28 68 11.3 12.9 0.00 0.00 0.00 81 1012.2
20260505094454 28 338 11.3 11.3 0.00 0.00 0.00 80 1012.2
20260505093953 28 68 11.3 14.5 0.00 0.00 0.00 81 1012.2
20260505093453 28 45 12.9 19.3 0.00 0.00 0.00 79 1012.2
20260505092954 28 68 11.3 16.1 0.00 0.00 0.00 78 1012.2
20260505092453 28 90 14.5 16.1 0.00 0.00 0.00 78 1011.9
20260505091953 28 90 9.7 14.5 0.00 0.00 0.00 78 1011.9
20260505091454 28 90 14.5 22.5 0.00 0.00 0.00 77 1011.9
20260505090954 29 68 14.5 17.7 0.00 0.00 0.00 76 1011.9
20260505090453 29 68 11.3 17.7 0.00 0.00 0.00 77 1011.5
20260505085953 29 90 12.9 19.3 0.00 0.00 0.00 75 1011.9
20260505085453 29 68 19.3 24.1 0.00 0.00 0.00 75 1011.5
20260505084953 30 45 16.1 20.9 0.00 0.00 0.00 75 1011.5
20260505084454 30 90 14.5 19.3 0.00 0.00 0.00 75 1011.5
20260505083954 30 68 9.7 11.3 0.00 0.00 0.00 76 1011.5
20260505083453 30 68 17.7 20.9 0.00 0.00 0.00 72 1011.5
20260505082953 30 90 14.5 17.7 0.00 0.00 0.00 73 1011.5
20260505082453 31 90 9.7 14.5 0.00 0.00 0.00 73 1011.5
20260505081953 30 90 17.7 20.9 0.00 0.00 0.00 73 1011.2
20260505081453 30 45 24.1 30.6 0.00 0.00 0.00 71 1011.2
20260505080953 30 68 16.1 20.9 0.00 0.00 0.00 72 1011.2
20260505080454 31 68 19.3 25.7 0.00 0.00 0.00 72 1011.2
20260505075954 30 45 12.9 17.7 0.00 0.00 0.00 75 1011.2
20260505075453 31 68 16.1 20.9 0.00 0.00 0.00 73 1011.2
20260505074953 31 45 16.1 19.3 0.00 0.00 0.00 73 1011.2
20260505074453 31 113 14.5 17.7 0.00 0.00 0.00 72 1011.5
20260505073953 31 113 9.7 14.5 0.00 0.00 0.00 71 1011.5
20260505073454 31 113 11.3 14.5 0.00 0.00 0.00 72 1011.2
20260505072954 32 90 6.4 8.0 0.00 0.00 0.00 69 1011.5
20260505072453 32 90 9.7 11.3 0.00 0.00 0.00 70 1011.2
20260505071954 32 113 12.9 16.1 0.00 0.00 0.00 70 1011.5
20260505071454 32 68 12.9 16.1 0.00 0.00 0.00 69 1011.5
20260505070953 32 90 9.7 11.3 0.00 0.00 0.00 70 1011.5
20260505070456 32 113 8.0 11.3 0.00 0.00 0.00 68 1011.5
20260505065953 31 90 12.9 19.3 0.00 0.00 0.00 67 1011.5
20260505065453 32 45 6.4 8.0 0.00 0.00 0.00 71 1011.5
20260505064954 32 68 14.5 20.9 0.00 0.00 0.00 71 1011.5
20260505064454 31 68 14.5 19.3 0.00 0.00 0.00 73 1011.5
20260505063954 31 45 14.5 25.7 0.00 0.00 0.00 72 1011.5
20260505063453 31 68 16.1 19.3 0.00 0.00 0.00 72 1011.9
20260505062953 32 113 8.0 11.3 0.00 0.00 0.00 70 1011.9
20260505062453 32 90 16.1 22.5 0.00 0.00 0.00 70 1011.9
20260505061953 32 90 14.5 17.7 0.00 0.00 0.00 71 1011.9
20260505061453 32 68 8.0 11.3 0.00 0.00 0.00 68 1011.9
20260505060954 32 68 9.7 11.3 0.00 0.00 0.00 69 1011.9
20260505060453 32 68 12.9 17.7 0.00 0.00 0.00 70 1011.9
20260505055954 32 90 12.9 17.7 0.00 0.00 0.00 71 1011.9
20260505055453 32 68 14.5 17.7 0.00 0.00 0.00 69 1011.9
20260505054955 32 90 3.2 4.8 0.00 0.00 0.00 70 1011.9
20260505054454 32 68 17.7 22.5 0.00 0.00 0.00 68 1012.2
20260505053953 32 113 9.7 12.9 0.00 0.00 0.00 69 1012.2
20260505053453 32 45 9.7 11.3 0.00 0.00 0.00 68 1012.2
20260505052953 32 68 11.3 16.1 0.00 0.00 0.00 69 1012.2
20260505052454 31 68 12.9 16.1 0.00 0.00 0.00 71 1012.2
20260505051953 31 90 16.1 19.3 0.00 0.00 0.00 71 1012.2
20260505051454 32 90 14.5 20.9 0.00 0.00 0.00 70 1012.5
20260505050953 32 68 9.7 14.5 0.00 0.00 0.00 69 1012.5
20260505050453 32 135 6.4 8.0 0.00 0.00 0.00 70 1012.5
20260505041453 32 90 8.0 11.3 0.00 0.00 0.00 71 1013.2
20260505040954 32 90 1.6 3.2 0.00 0.00 0.00 69 1013.5
20260505040453 33 90 4.8 6.4 0.00 0.00 0.00 67 1013.5
20260505035953 32 23 6.4 8.0 0.00 0.00 0.00 71 1013.5
20260505035453 32 68 4.8 8.0 0.00 0.00 0.00 70 1013.5
20260505034953 32 90 3.2 4.8 0.00 0.00 0.00 70 1013.5
20260505034454 32 90 4.8 8.0 0.00 0.00 0.00 74 1013.5
20260505033953 32 68 4.8 4.8 0.00 0.00 0.00 72 1013.5
20260505033453 32 45 4.8 6.4 0.00 0.00 0.00 73 1013.5
20260505032953 31 90 8.0 11.3 0.00 0.00 0.00 74 1013.5
20260505032454 31 113 3.2 3.2 0.00 0.00 0.00 78 1013.9
20260505031954 30 68 3.2 4.8 0.00 0.00 0.00 79 1013.9
20260505031454 30 90 3.2 3.2 0.00 0.00 0.00 81 1014.2
20260505030953 30 68 6.4 8.0 0.00 0.00 0.00 80 1014.2
20260505030453 30 90 4.8 4.8 0.00 0.00 0.00 79 1013.9
20260505025954 30 68 8.0 14.5 0.00 0.00 0.00 79 1013.9
20260505025453 30 90 4.8 8.0 0.00 0.00 0.00 78 1013.9
20260505024954 31 45 3.2 4.8 0.00 0.00 0.00 78 1014.2
20260505024453 30 135 11.3 24.1 0.00 0.00 0.00 78 1014.2
20260505023953 30 68 4.8 9.7 0.00 0.00 0.00 79 1013.9
20260505023453 29 45 11.3 14.5 0.00 0.00 0.00 79 1014.2
20260505022953 29 45 12.9 16.1 0.00 0.00 0.00 79 1014.2
20260505022457 29 135 8.0 9.7 0.00 0.00 0.00 79 1014.2
20260505021953 28 68 9.7 11.3 0.00 0.00 0.00 80 1014.2
20260505021453 27 68 6.4 11.3 0.00 0.00 0.00 89 1014.6
20260505020954 27 68 11.3 14.5 0.00 0.00 0.00 91 1014.6
20260505020454 27 23 17.7 24.1 0.00 0.00 0.00 87 1014.2
20260505015953 29 90 4.8 8.0 0.00 0.00 0.00 81 1014.2
20260505015453 30 68 4.8 8.0 0.00 0.00 0.00 80 1014.2
20260505014953 29 90 8.0 11.3 0.00 0.00 0.00 82 1014.6
20260505014453 29 68 9.7 12.9 0.00 0.00 0.00 79 1014.2